QPF
0.00 0.00 0.00 0.00 0.00 0.00 0.00 0.01 0.01 0.01 0.01 0.01 0.02 0.03 0.04 0.05 0.06 0.06 0.05 0.05 0.04 0.01 0.01 0.00 0.00 0.00 0.00 0.00 0.00 0.00 0.01 0.01 0.01 0.01 0.01 0.00 0.00 0.00 0.00 0.00 0.00 0.00 0.00
0.00 0.00 0.00 0.00 0.00 0.00 0.00 0.00 0.01 0.01 0.01 0.01 0.01 0.02 0.03 0.05 0.05 0.05 0.05 0.05 0.03 0.01 0.01 0.01 0.00 0.00 0.01 0.00 0.01 0.01 0.01 0.01 0.01 0.01 0.01 0.00 0.00 0.00 0.00 0.00 0.00 0.00 0.00
0.00 0.00 0.00 0.00 0.00 0.00 0.00 0.00 0.00 0.01 0.01 0.01 0.02 0.03 0.04 0.05 0.05 0.05 0.05 0.05 0.03 0.02 0.01 0.01 0.01 0.01 0.01 0.01 0.01 0.00 0.01 0.02 0.01 0.01 0.01 0.01 0.00 0.00 0.00 0.00 0.00 0.00 0.00
0.00 0.00 0.00 0.00 0.00 0.00 0.00 0.00 0.00 0.01 0.02 0.01 0.01 0.03 0.03 0.05 0.04 0.04 0.04 0.04 0.03 0.03 0.02 0.01 0.01 0.01 0.01 0.01 0.01 0.00 0.01 0.01 0.01 0.00 0.00 0.00 0.01 0.01 0.01 0.00 0.00 0.00 0.00
0.00 0.00 0.00 0.00 0.00 0.00 0.00 0.00 0.01 0.01 0.02 0.01 0.01 0.02 0.03 0.04 0.04 0.03 0.03 0.04 0.03 0.03 0.02 0.01 0.01 0.01 0.01 0.01 0.01 0.00 0.01 0.00 0.00 0.00 0.00 0.00 0.00 0.00 0.01 0.00 0.00 0.00 0.00
0.00 0.01 0.01 0.01 0.00 0.00 0.00 0.00 0.01 0.01 0.01 0.01 0.01 0.01 0.03 0.03 0.03 0.03 0.02 0.03 0.03 0.03 0.03 0.02 0.01 0.01 0.01 0.01 0.01 0.01 0.01 0.00 0.00 0.00 0.00 0.00 0.00 0.00 0.00 0.00 0.00 0.00 0.00
0.00 0.01 0.01 0.01 0.01 0.00 0.00 0.01 0.01 0.01 0.01 0.01 0.01 0.01 0.02 0.03 0.02 0.02 0.02 0.02 0.02 0.03 0.03 0.03 0.01 0.01 0.01 0.01 0.02 0.01 0.01 0.01 0.01 0.01 0.01 0.01 0.01 0.01 0.00 0.00 0.01 0.00 0.00
0.00 0.00 0.00 0.00 0.01 0.01 0.01 0.01 0.01 0.01 0.01 0.01 0.01 0.01 0.02 0.03 0.02 0.02 0.02 0.02 0.02 0.02 0.02 0.03 0.02 0.01 0.01 0.01 0.02 0.01 0.01 0.01 0.01 0.01 0.01 0.01 0.01 0.01 0.00 0.00 0.01 0.01 0.01
0.00 0.00 0.00 0.00 0.00 0.01 0.01 0.01 0.01 0.01 0.01 0.01 0.01 0.02 0.02 0.03 0.03 0.01 0.02 0.03 0.03 0.03 0.03 0.03 0.02 0.02 0.02 0.02 0.02 0.02 0.02 0.02 0.02 0.01 0.01 0.01 0.01 0.01 0.01 0.01 0.01 0.01 0.01
0.00 0.00 0.00 0.00 0.00 0.01 0.01 0.01 0.02 0.02 0.01 0.01 0.01 0.02 0.02 0.04 0.04 0.03 0.01 0.02 0.03 0.04 0.04 0.04 0.03 0.02 0.02 0.02 0.03 0.03 0.02 0.02 0.02 0.02 0.02 0.01 0.01 0.01 0.01 0.01 0.01 0.02 0.02
0.01 0.01 0.00 0.00 0.01 0.01 0.02 0.01 0.02 0.02 0.02 0.01 0.01 0.01 0.01 0.03 0.04 0.04 0.03 0.02 0.02 0.04 0.05 0.04 0.04 0.03 0.02 0.02 0.02 0.03 0.03 0.03 0.02 0.02 0.02 0.01 0.01 0.01 0.01 0.01 0.02 0.02 0.02
0.02 0.02 0.01 0.00 0.01 0.01 0.02 0.02 0.02 0.02 0.03 0.02 0.02 0.01 0.01 0.02 0.04 0.04 0.04 0.03 0.03 0.03 0.04 0.05 0.05 0.04 0.02 0.02 0.02 0.02 0.03 0.03 0.03 0.03 0.02 0.01 0.01 0.01 0.01 0.01 0.01 0.01 0.02
0.02 0.02 0.01 0.00 0.01 0.02 0.02 0.03 0.02 0.02 0.03 0.02 0.01 0.01 0.01 0.02 0.03 0.04 0.05 0.06 0.05 0.04 0.04 0.04 0.04 0.04 0.02 0.02 0.02 0.03 0.03 0.04 0.03 0.03 0.02 0.02 0.01 0.01 0.01 0.02 0.02 0.02 0.02
0.02 0.02 0.01 0.00 0.01 0.02 0.02 0.03 0.03 0.02 0.04 0.04 0.02 0.01 0.02 0.02 0.02 0.03 0.03 0.04 0.06 0.06 0.05 0.04 0.03 0.03 0.03 0.02 0.02 0.03 0.03 0.03 0.04 0.04 0.03 0.03 0.02 0.02 0.02 0.02 0.02 0.03 0.03
0.02 0.02 0.02 0.01 0.01 0.02 0.02 0.02 0.03 0.02 0.03 0.06 0.03 0.01 0.01 0.01 0.01 0.02 0.02 0.02 0.04 0.06 0.06 0.05 0.04 0.03 0.02 0.02 0.02 0.02 0.03 0.03 0.03 0.04 0.04 0.04 0.03 0.02 0.02 0.02 0.02 0.02 0.03
0.02 0.03 0.03 0.02 0.01 0.01 0.02 0.03 0.03 0.02 0.02 0.04 0.03 0.01 0.01 0.01 0.01 0.01 0.01 0.02 0.02 0.04 0.07 0.07 0.05 0.03 0.03 0.03 0.03 0.02 0.03 0.03 0.03 0.03 0.03 0.04 0.03 0.02 0.02 0.02 0.02 0.02 0.02
0.02 0.02 0.03 0.03 0.02 0.02 0.02 0.02 0.03 0.03 0.02 0.02 0.02 0.01 0.01 0.01 0.01 0.01 0.01 0.01 0.02 0.03 0.05 0.07 0.07 0.04 0.03 0.03 0.03 0.03 0.03 0.04 0.04 0.04 0.04 0.04 0.03 0.02 0.01 0.02 0.02 0.02 0.03
0.02 0.03 0.03 0.03 0.02 0.01 0.01 0.01 0.02 0.03 0.02 0.01 0.01 0.01 0.01 0.01 0.01 0.01 0.01 0.01 0.01 0.03 0.05 0.06 0.07 0.06 0.03 0.03 0.03 0.04 0.04 0.05 0.05 0.05 0.05 0.04 0.03 0.02 0.02 0.02 0.02 0.02 0.02
0.02 0.02 0.02 0.03 0.02 0.01 0.01 0.01 0.02 0.02 0.03 0.02 0.01 0.01 0.01 0.01 0.01 0.01 0.01 0.01 0.01 0.02 0.04 0.05 0.06 0.06 0.04 0.04 0.03 0.04 0.04 0.05 0.05 0.06 0.06 0.05 0.04 0.03 0.03 0.03 0.03 0.03 0.02
0.00 0.01 0.02 0.02 0.02 0.02 0.01 0.01 0.02 0.02 0.03 0.02 0.02 0.02 0.01 0.01 0.01 0.01 0.01 0.02 0.02 0.02 0.03 0.04 0.06 0.06 0.05 0.05 0.05 0.05 0.05 0.05 0.05 0.04 0.05 0.07 0.05 0.04 0.04 0.04 0.05 0.05 0.04
0.00 0.00 0.01 0.02 0.01 0.01 0.00 0.01 0.01 0.02 0.03 0.03 0.03 0.02 0.01 0.01 0.00 0.01 0.02 0.02 0.03 0.04 0.04 0.04 0.06 0.07 0.06 0.05 0.05 0.06 0.06 0.05 0.04 0.03 0.03 0.04 0.05 0.04 0.05 0.05 0.05 0.05 0.05
0.00 0.00 0.01 0.02 0.02 0.01 0.00 0.00 0.00 0.01 0.01 0.03 0.03 0.02 0.02 0.01 0.01 0.01 0.01 0.02 0.03 0.03 0.04 0.04 0.05 0.05 0.05 0.05 0.05 0.05 0.05 0.04 0.04 0.03 0.03 0.03 0.03 0.03 0.04 0.04 0.05 0.05 0.04
0.00 0.01 0.01 0.01 0.02 0.01 0.01 0.00 0.00 0.00 0.01 0.02 0.02 0.02 0.01 0.01 0.01 0.01 0.02 0.02 0.03 0.03 0.03 0.04 0.04 0.04 0.03 0.04 0.04 0.04 0.04 0.04 0.04 0.03 0.03 0.03 0.03 0.03 0.03 0.04 0.04 0.04 0.03
0.00 0.01 0.01 0.01 0.02 0.02 0.01 0.01 0.01 0.01 0.01 0.02 0.02 0.02 0.02 0.01 0.01 0.01 0.02 0.02 0.02 0.02 0.03 0.04 0.04 0.04 0.03 0.03 0.04 0.05 0.05 0.05 0.05 0.04 0.05 0.04 0.04 0.04 0.04 0.04 0.04 0.03 0.03
0.00 0.01 0.01 0.01 0.02 0.03 0.02 0.01 0.01 0.01 0.02 0.02 0.03 0.03 0.02 0.01 0.02 0.03 0.03 0.03 0.02 0.03 0.04 0.04 0.05 0.04 0.03 0.03 0.05 0.05 0.05 0.05 0.05 0.05 0.05 0.04 0.04 0.04 0.04 0.04 0.03 0.03 0.04
0.00 0.01 0.01 0.02 0.02 0.03 0.02 0.01 0.02 0.02 0.02 0.02 0.03 0.03 0.03 0.03 0.03 0.04 0.05 0.05 0.04 0.04 0.05 0.04 0.04 0.03 0.03 0.03 0.04 0.05 0.05 0.06 0.06 0.06 0.05 0.05 0.04 0.04 0.04 0.04 0.04 0.04 0.05
MSLP
1002.94 1002.63 1002.31 1001.98 1001.66 1001.38 1001.20 1001.14 1001.23 1001.48 1001.85 1002.31 1002.80 1003.30 1003.75 1004.15 1004.48 1004.77 1005.04 1005.33 1005.64 1005.99 1006.39 1006.82 1007.28 1007.74 1008.19 1008.63 1009.05 1009.45 1009.82 1010.14 1010.42 1010.63 1010.76 1010.82 1010.78 1010.68 1010.54 1010.38 1010.24 1010.16 1010.14
1003.08 1002.89 1002.66 1002.36 1002.01 1001.67 1001.38 1001.20 1001.16 1001.27 1001.53 1001.90 1002.33 1002.77 1003.19 1003.57 1003.89 1004.18 1004.46 1004.75 1005.06 1005.42 1005.81 1006.22 1006.66 1007.08 1007.50 1007.91 1008.30 1008.69 1009.06 1009.40 1009.71 1009.97 1010.15 1010.24 1010.24 1010.15 1010.00 1009.82 1009.64 1009.52 1009.46
1003.22 1003.18 1003.05 1002.82 1002.48 1002.09 1001.71 1001.40 1001.21 1001.18 1001.30 1001.55 1001.88 1002.24 1002.61 1002.95 1003.25 1003.54 1003.82 1004.11 1004.44 1004.79 1005.17 1005.57 1005.97 1006.36 1006.73 1007.09 1007.44 1007.79 1008.15 1008.50 1008.84 1009.14 1009.37 1009.52 1009.57 1009.52 1009.39 1009.22 1009.04 1008.89 1008.80
1003.28 1003.41 1003.41 1003.25 1002.94 1002.52 1002.06 1001.64 1001.32 1001.13 1001.10 1001.21 1001.42 1001.68 1001.97 1002.26 1002.53 1002.80 1003.07 1003.37 1003.69 1004.05 1004.42 1004.80 1005.17 1005.52 1005.85 1006.16 1006.47 1006.78 1007.11 1007.47 1007.82 1008.16 1008.45 1008.67 1008.79 1008.81 1008.74 1008.60 1008.44 1008.29 1008.19
1003.26 1003.53 1003.65 1003.57 1003.30 1002.87 1002.35 1001.83 1001.39 1001.07 1000.89 1000.86 1000.94 1001.10 1001.29 1001.51 1001.73 1001.96 1002.21 1002.50 1002.82 1003.17 1003.54 1003.91 1004.26 1004.59 1004.88 1005.15 1005.41 1005.70 1006.01 1006.36 1006.73 1007.10 1007.45 1007.74 1007.94 1008.04 1008.04 1007.97 1007.85 1007.72 1007.63
1003.14 1003.53 1003.74 1003.72 1003.48 1003.04 1002.48 1001.90 1001.36 1000.93 1000.64 1000.48 1000.45 1000.50 1000.60 1000.73 1000.89 1001.07 1001.28 1001.54 1001.84 1002.19 1002.55 1002.92 1003.26 1003.57 1003.85 1004.10 1004.34 1004.59 1004.89 1005.23 1005.61 1006.02 1006.42 1006.77 1007.06 1007.24 1007.33 1007.33 1007.28 1007.19 1007.11
1002.97 1003.40 1003.66 1003.67 1003.44 1003.00 1002.42 1001.79 1001.20 1000.70 1000.33 1000.09 999.96 999.92 999.93 999.98 1000.06 1000.18 1000.34 1000.56 1000.83 1001.16 1001.52 1001.88 1002.23 1002.54 1002.81 1003.05 1003.28 1003.52 1003.80 1004.14 1004.53 1004.95 1005.39 1005.80 1006.16 1006.43 1006.60 1006.69 1006.70 1006.67 1006.62
1002.76 1003.17 1003.41 1003.41 1003.16 1002.71 1002.13 1001.49 1000.88 1000.36 999.96 999.68 999.50 999.39 999.34 999.32 999.33 999.37 999.47 999.63 999.87 1000.16 1000.50 1000.86 1001.21 1001.53 1001.81 1002.06 1002.29 1002.53 1002.80 1003.12 1003.50 1003.93 1004.38 1004.84 1005.25 1005.59 1005.85 1006.02 1006.10 1006.13 1006.13
1002.52 1002.85 1003.00 1002.95 1002.66 1002.20 1001.62 1001.00 1000.42 999.92 999.54 999.27 999.08 998.95 998.86 998.78 998.72 998.70 998.73 998.83 999.00 999.25 999.57 999.91 1000.26 1000.59 1000.88 1001.14 1001.38 1001.61 1001.87 1002.17 1002.54 1002.95 1003.41 1003.88 1004.33 1004.72 1005.05 1005.29 1005.45 1005.55 1005.60
1002.26 1002.44 1002.48 1002.32 1001.98 1001.50 1000.93 1000.36 999.84 999.41 999.09 998.87 998.71 998.59 998.48 998.37 998.27 998.18 998.13 998.16 998.27 998.47 998.73 999.06 999.40 999.72 1000.02 1000.29 1000.53 1000.76 1001.00 1001.28 1001.61 1002.00 1002.44 1002.91 1003.37 1003.80 1004.18 1004.48 1004.71 1004.88 1004.99
1001.96 1001.97 1001.86 1001.59 1001.18 1000.68 1000.14 999.63 999.20 998.86 998.63 998.48 998.39 998.30 998.20 998.07 997.92 997.77 997.66 997.61 997.65 997.78 998.00 998.28 998.60 998.92 999.21 999.48 999.71 999.92 1000.14 1000.40 1000.69 1001.05 1001.46 1001.90 1002.36 1002.82 1003.23 1003.58 1003.88 1004.10 1004.28
1001.61 1001.46 1001.20 1000.82 1000.36 999.84 999.34 998.90 998.55 998.32 998.19 998.12 998.08 998.03 997.94 997.80 997.61 997.42 997.24 997.12 997.09 997.16 997.32 997.55 997.83 998.13 998.41 998.66 998.88 999.08 999.28 999.50 999.76 1000.07 1000.44 1000.86 1001.31 1001.77 1002.20 1002.60 1002.95 1003.24 1003.49
1001.22 1000.93 1000.55 1000.09 999.58 999.07 998.61 998.24 997.98 997.84 997.79 997.78 997.79 997.76 997.67 997.51 997.29 997.04 996.81 996.64 996.54 996.54 996.64 996.83 997.07 997.32 997.58 997.81 998.02 998.20 998.37 998.56 998.79 999.07 999.41 999.80 1000.24 1000.69 1001.15 1001.58 1001.98 1002.33 1002.65
1000.80 1000.41 999.95 999.44 998.93 998.44 998.03 997.72 997.53 997.45 997.44 997.47 997.49 997.45 997.34 997.15 996.89 996.61 996.33 996.10 995.96 995.90 995.96 996.09 996.28 996.51 996.73 996.94 997.12 997.29 997.44 997.62 997.82 998.08 998.39 998.77 999.19 999.65 1000.12 1000.58 1001.03 1001.44 1001.83
1000.35 999.92 999.43 998.93 998.44 997.99 997.63 997.37 997.23 997.17 997.18 997.19 997.18 997.11 996.95 996.72 996.42 996.10 995.79 995.52 995.34 995.25 995.26 995.36 995.51 995.70 995.89 996.08 996.24 996.39 996.54 996.70 996.90 997.15 997.45 997.82 998.24 998.71 999.20 999.69 1000.18 1000.65 1001.11
999.88 999.46 999.00 998.54 998.10 997.71 997.41 997.19 997.07 997.01 996.98 996.95 996.88 996.74 996.52 996.24 995.90 995.55 995.21 994.93 994.74 994.63 994.61 994.68 994.80 994.96 995.13 995.29 995.44 995.58 995.72 995.89 996.09 996.35 996.67 997.05 997.48 997.96 998.48 999.00 999.53 1000.06 1000.57
999.40 999.03 998.63 998.24 997.88 997.56 997.31 997.12 997.00 996.91 996.83 996.73 996.58 996.37 996.09 995.75 995.39 995.02 994.69 994.41 994.22 994.11 994.09 994.14 994.24 994.37 994.51 994.64 994.78 994.92 995.07 995.25 995.48 995.76 996.11 996.51 996.98 997.48 998.03 998.59 999.15 999.72 1000.28
998.90 998.60 998.28 997.97 997.69 997.45 997.25 997.09 996.96 996.84 996.70 996.53 996.30 996.02 995.69 995.33 994.95 994.60 994.29 994.04 993.88 993.79 993.77 993.81 993.89 994.00 994.11 994.23 994.36 994.50 994.66 994.87 995.13 995.45 995.83 996.28 996.77 997.32 997.89 998.48 999.08 999.68 1000.28
998.38 998.13 997.89 997.66 997.46 997.29 997.14 997.00 996.87 996.72 996.54 996.31 996.04 995.72 995.37 995.01 994.66 994.34 994.08 993.88 993.76 993.70 993.70 993.74 993.81 993.89 993.99 994.09 994.20 994.35 994.53 994.76 995.06 995.43 995.85 996.34 996.88 997.46 998.06 998.68 999.30 999.92 1000.55
997.82 997.61 997.43 997.27 997.13 997.01 996.90 996.79 996.67 996.51 996.31 996.06 995.78 995.46 995.13 994.80 994.51 994.26 994.07 993.95 993.88 993.86 993.88 993.93 993.99 994.05 994.13 994.21 994.32 994.47 994.67 994.94 995.27 995.68 996.16 996.69 997.27 997.88 998.51 999.14 999.77 1000.40 1001.03
997.25 997.06 996.89 996.76 996.66 996.58 996.51 996.43 996.32 996.17 995.99 995.76 995.50 995.23 994.96 994.71 994.50 994.34 994.24 994.19 994.18 994.21 994.26 994.31 994.37 994.42 994.48 994.56 994.67 994.82 995.04 995.34 995.72 996.16 996.68 997.25 997.86 998.49 999.14 999.78 1000.41 1001.04 1001.65
996.71 996.49 996.32 996.19 996.09 996.03 995.98 995.92 995.84 995.73 995.58 995.40 995.20 995.00 994.82 994.67 994.56 994.50 994.49 994.52 994.58 994.66 994.73 994.80 994.86 994.91 994.97 995.04 995.16 995.34 995.59 995.92 996.32 996.81 997.36 997.96 998.58 999.23 999.87 1000.51 1001.13 1001.74 1002.33
996.26 995.99 995.77 995.61 995.50 995.43 995.39 995.34 995.29 995.21 995.11 995.00 994.88 994.76 994.68 994.62 994.62 994.66 994.73 994.84 994.96 995.08 995.19 995.28 995.35 995.42 995.49 995.59 995.73 995.94 996.22 996.58 997.03 997.54 998.11 998.72 999.35 999.99 1000.63 1001.25 1001.85 1002.43 1002.99
995.96 995.61 995.33 995.12 994.98 994.88 994.82 994.78 994.73 994.69 994.64 994.58 994.53 994.49 994.49 994.53 994.61 994.73 994.88 995.05 995.22 995.39 995.53 995.65 995.76 995.85 995.96 996.10 996.29 996.54 996.87 997.28 997.75 998.29 998.87 999.48 1000.11 1000.73 1001.34 1001.94 1002.51 1003.05 1003.58
995.87 995.44 995.09 994.82 994.62 994.48 994.38 994.31 994.27 994.23 994.20 994.17 994.17 994.20 994.25 994.35 994.49 994.67 994.88 995.09 995.31 995.51 995.70 995.86 996.02 996.17 996.35 996.55 996.81 997.12 997.51 997.96 998.47 999.02 999.61 1000.21 1000.82 1001.42 1001.99 1002.55 1003.08 1003.60 1004.09
996.01 995.52 995.10 994.76 994.49 994.29 994.14 994.03 993.95 993.89 993.85 993.83 993.84 993.88 993.97 994.10 994.27 994.48 994.71 994.96 995.21 995.46 995.69 995.92 996.15 996.38 996.64 996.93 997.27 997.66 998.11 998.61 999.15 999.72 1000.31 1000.90 1001.48 1002.04 1002.58 1003.10 1003.60 1004.08 1004.54
Thickness
5702 5706 5708 5709 5710 5711 5711 5710 5709 5708 5707 5704 5703 5702 5701 5702 5702 5702 5702 5700 5698 5696 5692 5689 5685 5682 5678 5675 5672 5668 5664 5661 5658 5653 5649 5650 5651 5651 5650 5648 5646 5643 5641
5692 5695 5698 5699 5700 5702 5704 5704 5704 5703 5702 5702 5701 5700 5698 5698 5698 5698 5698 5697 5695 5693 5690 5686 5682 5679 5676 5672 5669 5665 5660 5657 5654 5648 5642 5639 5642 5645 5647 5644 5642 5639 5636
5682 5686 5689 5690 5691 5693 5696 5699 5699 5699 5698 5697 5694 5692 5690 5689 5690 5691 5692 5692 5691 5690 5688 5684 5680 5677 5673 5669 5666 5663 5658 5653 5650 5648 5642 5637 5637 5638 5641 5641 5639 5635 5632
5677 5679 5681 5682 5684 5687 5690 5691 5693 5693 5693 5691 5688 5686 5685 5686 5689 5689 5688 5687 5687 5686 5684 5681 5678 5675 5671 5668 5665 5661 5657 5651 5647 5644 5643 5641 5640 5634 5632 5633 5633 5631 5628
5670 5672 5674 5676 5678 5680 5681 5683 5685 5686 5686 5685 5683 5681 5681 5683 5684 5683 5682 5682 5682 5681 5680 5678 5675 5672 5669 5666 5662 5658 5655 5651 5647 5643 5638 5635 5633 5631 5626 5624 5624 5623 5623
5661 5664 5667 5668 5670 5672 5673 5674 5675 5677 5679 5678 5678 5677 5676 5677 5676 5676 5676 5676 5676 5676 5675 5673 5671 5669 5666 5663 5660 5656 5652 5649 5646 5641 5637 5633 5629 5626 5622 5620 5617 5616 5616
5649 5651 5654 5656 5659 5662 5663 5665 5667 5669 5671 5671 5671 5671 5672 5672 5671 5672 5672 5671 5671 5671 5670 5668 5666 5664 5662 5660 5656 5652 5650 5647 5643 5640 5637 5633 5631 5627 5622 5617 5614 5611 5609
5640 5641 5644 5646 5648 5652 5655 5656 5658 5660 5663 5664 5665 5666 5666 5666 5667 5667 5668 5668 5668 5668 5666 5663 5661 5659 5657 5655 5652 5649 5647 5643 5640 5636 5633 5630 5627 5623 5620 5615 5608 5603 5602
5629 5631 5634 5637 5640 5642 5645 5647 5649 5652 5655 5657 5658 5658 5659 5659 5661 5662 5662 5662 5663 5662 5660 5658 5655 5653 5652 5649 5646 5644 5642 5639 5636 5632 5629 5626 5623 5619 5615 5611 5606 5599 5594
5617 5620 5623 5626 5629 5632 5635 5638 5641 5643 5645 5647 5649 5651 5651 5653 5654 5654 5654 5655 5656 5655 5653 5652 5650 5648 5646 5643 5641 5639 5637 5634 5631 5628 5624 5621 5618 5614 5609 5605 5600 5595 5590
5604 5608 5612 5615 5618 5621 5624 5626 5629 5633 5635 5637 5640 5641 5642 5644 5644 5645 5646 5647 5647 5647 5646 5644 5642 5641 5639 5637 5634 5632 5630 5627 5625 5622 5618 5615 5610 5606 5602 5597 5593 5588 5583
5593 5596 5600 5603 5605 5608 5612 5614 5617 5620 5623 5627 5629 5631 5632 5633 5634 5636 5638 5638 5639 5639 5638 5636 5634 5632 5631 5629 5627 5625 5623 5620 5617 5615 5612 5608 5604 5599 5595 5590 5586 5581 5576
5582 5585 5588 5590 5592 5596 5599 5601 5604 5608 5612 5615 5617 5619 5621 5622 5624 5626 5628 5629 5629 5629 5628 5627 5625 5624 5623 5621 5620 5618 5616 5614 5611 5608 5605 5602 5596 5593 5588 5584 5579 5574 5569
5571 5573 5574 5577 5580 5583 5586 5588 5592 5596 5599 5602 5604 5607 5609 5612 5614 5615 5616 5617 5618 5618 5617 5617 5616 5614 5613 5612 5611 5609 5608 5606 5603 5601 5598 5594 5590 5586 5581 5576 5571 5565 5559
5561 5562 5561 5563 5566 5569 5572 5575 5578 5582 5586 5587 5590 5593 5596 5599 5602 5603 5604 5605 5606 5606 5606 5605 5604 5603 5602 5602 5601 5600 5598 5596 5594 5591 5589 5586 5583 5579 5574 5569 5564 5558 5552
5548 5549 5550 5551 5552 5554 5557 5561 5564 5567 5570 5572 5575 5579 5582 5585 5588 5590 5591 5592 5593 5594 5594 5594 5594 5593 5592 5591 5589 5588 5586 5585 5584 5582 5579 5577 5572 5569 5565 5561 5557 5552 5546
5535 5536 5537 5537 5539 5541 5544 5547 5550 5552 5555 5558 5561 5564 5567 5570 5573 5576 5577 5579 5580 5581 5581 5582 5582 5582 5582 5580 5578 5576 5574 5574 5573 5572 5569 5566 5564 5560 5555 5551 5547 5542 5538
5524 5524 5524 5525 5527 5529 5532 5535 5538 5539 5542 5544 5546 5549 5552 5555 5559 5561 5563 5565 5567 5569 5570 5570 5570 5570 5570 5568 5566 5564 5562 5563 5562 5561 5559 5556 5554 5550 5545 5540 5535 5532 5528
5512 5512 5512 5513 5514 5516 5518 5521 5524 5526 5528 5530 5532 5535 5538 5541 5544 5547 5549 5552 5554 5555 5557 5558 5558 5558 5558 5556 5555 5552 5551 5552 5551 5550 5548 5546 5543 5540 5535 5529 5524 5520 5516
5500 5500 5500 5501 5502 5503 5506 5508 5511 5512 5514 5516 5518 5522 5524 5527 5530 5532 5535 5539 5541 5542 5543 5544 5545 5546 5546 5545 5544 5541 5541 5540 5540 5539 5538 5535 5533 5529 5524 5520 5515 5509 5504
5487 5487 5487 5487 5489 5491 5493 5495 5497 5499 5501 5503 5505 5508 5511 5513 5516 5519 5522 5525 5527 5529 5530 5531 5532 5533 5534 5533 5533 5531 5531 5530 5529 5528 5526 5524 5522 5518 5514 5510 5505 5501 5493
5475 5475 5474 5475 5477 5479 5481 5483 5484 5486 5488 5490 5492 5495 5497 5499 5503 5505 5508 5511 5513 5515 5517 5518 5519 5519 5521 5521 5521 5520 5520 5520 5518 5517 5515 5513 5509 5506 5502 5498 5494 5488 5480
5464 5463 5462 5464 5466 5468 5469 5470 5472 5473 5475 5477 5479 5481 5484 5486 5489 5491 5494 5497 5500 5502 5504 5505 5506 5506 5508 5508 5509 5509 5508 5508 5507 5506 5505 5502 5498 5494 5489 5486 5481 5474 5467
5452 5451 5451 5452 5453 5455 5457 5457 5459 5461 5463 5464 5466 5469 5471 5473 5476 5478 5480 5482 5485 5487 5490 5492 5493 5493 5494 5495 5496 5496 5495 5495 5494 5493 5491 5488 5485 5481 5477 5473 5467 5462 5457
5441 5439 5438 5439 5440 5442 5443 5445 5446 5448 5449 5451 5454 5456 5458 5460 5462 5464 5466 5468 5471 5474 5477 5479 5480 5480 5481 5484 5485 5484 5483 5483 5482 5479 5475 5472 5469 5466 5462 5458 5453 5449 5444
5428 5427 5426 5426 5427 5429 5430 5433 5435 5436 5437 5439 5441 5443 5444 5447 5449 5451 5454 5457 5459 5463 5465 5467 5468 5469 5471 5472 5473 5473 5473 5472 5471 5467 5464 5461 5457 5454 5450 5445 5440 5435 5431